User: anonymous   Login
Location: Unspecified
(0.0000°N, 0.0000°E)
Time: 09:22:29
(UTC+00:00)
Language:

DELFI-N3XT - Orbit

View from above orbital plane
View from above orbital plane
View from above satellite
View from above satellite

Ground track
Ground track

The orbit data is extracted from the following two-line orbital elements,

1 39420U 13066E   18023.95240571 +.00000231 +00000-0 +48567-4 0  9991
2 39420 097.6652 017.7452 0138919 043.2063 317.9939 14.61986328222623
Epoch (UTC): 23 January 2018 22:51:27
Eccentricity: 0.0138919
inclination: 97.6652°
perigee height: 588 km
apogee height: 785 km
right ascension of ascending node: 17.7452°
argument of perigee: 43.2063°
revolutions per day: 14.61986328
mean anomaly at epoch: 317.9939°
orbit number at epoch: 22262

The dashed part of the orbit path shows where the satellite is in the earth's shadow,  

DLR